Theta_e
314 316 317 317 319 317 314 312 307 307 309 316 319 321 322 322 323 323 325 327 329 327 326 325 328 328 327 327 326 328 332 334 333 332 330 328 330 329 329 331 331 331 332 332 328
313 314 315 316 315 318 318 315 312 308 306 307 314 319 319 320 320 321 323 325 325 325 326 330 329 328 326 327 326 326 330 333 329 327 328 328 329 329 330 330 331 333 332 326 327
311 313 314 314 315 313 316 319 315 311 308 306 306 314 318 319 320 321 321 320 321 322 325 325 327 328 326 326 326 325 326 329 327 325 325 327 327 327 328 329 330 332 331 331 333
308 311 313 314 314 313 313 316 319 313 310 308 307 307 313 318 320 320 318 317 317 320 321 325 328 328 326 326 326 326 325 326 326 323 324 326 325 326 326 326 326 327 327 327 328
306 308 311 312 313 314 313 313 317 318 312 310 309 308 311 317 319 320 322 322 317 318 320 326 328 326 326 325 325 326 326 325 325 324 324 324 325 325 327 326 325 325 324 324 325
304 305 309 311 312 312 313 313 314 316 317 311 309 309 312 315 315 318 318 322 323 320 321 326 327 326 325 324 324 325 325 324 325 325 325 325 325 326 326 326 326 326 325 325 325
303 305 306 310 311 312 312 312 314 314 317 315 310 310 314 315 316 316 315 321 321 325 325 325 326 326 325 325 324 325 325 325 325 325 325 326 325 325 325 325 325 325 325 325 325
301 303 305 308 310 311 312 312 312 314 315 317 311 311 313 311 316 315 315 315 321 323 326 326 327 327 327 324 325 325 324 324 322 324 324 324 324 322 324 325 325 325 325 325 325
300 300 304 306 310 310 310 311 312 313 314 316 313 311 313 312 314 315 315 316 320 322 324 327 325 326 325 326 326 325 324 323 322 322 323 324 326 323 322 323 324 324 324 324 324
300 299 301 304 306 309 309 311 312 313 313 315 314 312 312 313 313 313 315 319 321 323 324 324 326 324 324 324 324 323 324 322 321 321 324 323 323 321 323 323 323 324 323 323 322
300 299 300 301 304 308 309 311 313 312 313 314 314 313 313 313 313 313 315 316 320 321 323 324 324 324 324 324 323 320 320 320 320 320 323 323 322 321 321 321 322 323 323 322 321
300 299 300 301 303 307 310 311 312 313 313 314 314 313 313 313 313 314 316 317 320 319 321 321 322 320 320 320 322 322 322 321 320 320 322 321 320 319 319 319 319 320 320 320 320
301 299 300 300 303 305 308 310 312 313 312 313 314 313 313 313 314 314 316 317 318 318 318 319 319 318 317 317 318 320 322 321 321 319 320 322 322 321 320 320 320 320 320 321 321
302 300 301 300 303 304 304 309 311 312 314 313 313 314 312 314 314 313 315 315 317 318 317 317 317 319 321 320 319 320 319 319 319 320 321 318 319 317 317 318 318 320 320 320 320
303 300 300 301 303 304 304 306 310 312 313 314 313 313 313 313 314 313 314 315 316 316 317 317 316 317 319 319 319 321 319 319 319 320 321 321 319 317 316 316 315 316 318 318 317
303 300 300 300 302 303 303 307 309 311 314 315 312 314 314 314 314 315 316 315 314 315 314 316 316 316 317 317 317 318 319 320 320 320 322 319 319 315 314 315 314 315 316 316 315
303 301 300 301 302 304 304 307 310 312 311 312 313 313 313 314 314 315 315 316 315 317 316 314 316 315 316 317 316 318 320 320 318 317 315 314 318 316 314 315 315 314 315 314 313
303 301 300 301 302 302 304 305 309 310 311 310 313 312 313 314 314 315 315 315 314 315 316 316 316 314 316 316 317 317 318 316 316 318 315 313 314 313 315 315 316 317 316 314 312
303 302 299 300 301 303 304 305 308 311 311 313 313 312 314 313 314 315 315 315 314 315 317 317 317 315 315 316 315 317 319 315 316 311 315 315 315 315 315 314 313 313 314 312 311
303 301 300 300 299 301 302 304 304 305 309 311 313 313 314 314 314 315 315 314 314 314 314 314 316 315 315 316 316 317 316 319 316 319 313 312 312 313 316 315 312 311 312 312 310
301 300 300 299 299 300 302 302 302 302 304 309 312 313 313 313 313 315 314 314 313 314 314 312 314 314 315 317 317 317 317 317 317 317 317 315 312 313 312 314 313 311 313 312 310
299 300 300 299 300 299 299 299 302 302 303 304 310 312 313 313 314 314 315 314 313 313 314 313 312 314 315 314 314 315 316 316 317 316 316 315 314 312 312 313 314 313 313 312 311
299 300 300 299 299 299 299 299 301 302 303 305 308 310 311 313 313 313 313 312 313 313 314 313 313 313 313 313 313 315 315 315 315 312 316 316 315 312 312 313 314 313 312 311 309
297 300 299 299 299 299 300 302 300 302 302 301 302 301 311 312 312 313 312 311 312 312 313 313 312 312 312 310 313 314 313 314 315 316 315 315 314 313 312 312 313 313 312 311 308
298 299 299 300 299 299 300 300 301 303 302 303 305 304 311 312 312 311 312 311 311 311 312 312 314 312 311 310 310 312 312 312 314 314 315 313 313 313 313 311 312 313 312 309 308
297 298 298 298 299 298 300 298 300 302 304 306 304 305 310 310 311 310 311 311 311 310 311 311 311 311 309 311 311 311 310 310 312 312 312 313 313 311 312 312 313 313 312 310 307
298 298 298 300 300 300 300 299 300 301 303 303 306 308 310 310 308 309 309 310 310 310 310 311 311 311 311 309 310 311 310 310 310 310 311 312 311 311 311 311 311 311 311 310 310
Wind_Speed
21 22 19 19 17 19 17 16 19 20 18 17 15 15 15 15 15 14 13 11 10 10 8 10 9 9 7 5 7 5 3 3 3 3 8 7 5 1 1 7 8 6 9 9 6
19 22 21 21 20 17 18 17 16 17 18 17 15 14 13 12 13 16 16 16 13 11 6 5 7 8 8 2 3 4 2 5 9 11 5 7 4 8 5 8 11 12 7 7 8
19 20 22 22 22 20 17 17 17 16 16 16 15 14 11 8 10 8 11 17 17 12 9 8 6 7 7 5 5 3 3 7 10 11 8 6 1 1 5 3 9 18 12 7 5
18 20 21 21 23 22 20 16 17 16 15 14 14 13 11 7 6 2 5 11 14 16 14 7 5 5 5 6 11 2 10 2 6 4 2 1 4 3 3 4 6 6 10 7 5
23 18 21 22 21 22 22 20 16 16 15 14 13 13 13 11 14 9 6 3 9 16 19 11 8 10 8 6 12 5 13 4 3 1 2 2 4 7 4 5 5 5 7 6 6
23 25 20 21 21 22 21 22 21 16 16 15 14 15 18 16 9 15 17 4 3 9 15 14 8 11 12 11 10 6 9 14 7 7 5 3 9 13 6 13 13 11 12 10 11
21 23 23 19 20 20 21 22 21 19 16 15 14 17 17 20 6 16 17 9 2 7 9 12 13 10 7 8 13 2 5 7 7 6 7 7 8 10 17 15 10 14 14 15 15
23 23 27 20 17 21 21 19 22 20 18 14 14 15 12 17 14 10 13 16 5 8 11 9 11 7 12 4 3 4 6 7 8 14 7 8 8 11 22 29 24 21 17 22 15
24 23 25 26 16 19 21 20 18 22 18 16 16 15 9 15 20 20 11 11 9 2 11 9 8 6 6 4 5 7 5 11 8 16 9 9 4 9 19 11 17 16 17 16 15
21 22 24 28 21 18 19 17 15 20 20 16 15 11 14 11 13 23 17 12 9 6 4 6 5 5 4 7 8 7 11 11 10 5 3 8 9 9 19 8 10 13 17 17 21
24 21 21 26 28 16 19 20 13 10 27 11 10 10 5 14 15 19 23 13 13 11 6 13 5 12 11 12 9 10 9 8 7 8 6 8 9 10 18 20 19 24 23 24 25
24 21 22 24 24 21 20 26 22 4 10 32 8 23 7 15 9 13 22 13 11 13 14 6 14 10 9 8 11 12 12 10 7 5 2 5 11 15 18 22 26 25 26 24 25
25 22 23 23 24 33 23 27 18 12 6 20 25 26 17 14 6 21 28 17 12 14 17 15 1 19 13 12 13 13 14 8 7 6 5 4 14 19 17 34 28 28 26 25 24
26 23 21 19 23 33 33 23 23 21 4 11 19 11 23 11 7 15 31 18 8 16 12 13 21 11 15 14 14 15 9 13 11 6 5 6 6 12 7 3 9 24 29 27 20
28 23 22 25 18 27 14 15 29 12 5 17 14 17 23 15 13 14 30 23 9 8 10 8 12 19 13 15 8 6 5 9 8 6 6 12 6 5 11 9 8 11 15 21 18
32 24 23 26 22 17 25 12 15 6 8 6 11 17 13 24 11 16 18 13 8 6 7 12 2 7 16 6 9 6 3 3 1 2 8 12 10 7 10 10 8 8 13 15 12
32 26 26 26 30 15 22 20 8 11 4 5 9 16 25 10 12 11 15 15 10 8 13 10 13 3 3 11 6 5 8 2 2 2 6 9 12 15 7 4 0 13 16 13 10
32 27 25 24 23 28 22 4 13 11 2 1 10 20 23 19 13 13 18 17 17 9 10 10 6 16 9 9 10 13 13 5 7 5 3 13 9 6 6 13 14 10 10 11 10
32 28 27 23 22 21 11 7 8 1 5 7 11 17 13 14 9 15 17 23 19 18 7 9 7 6 14 7 16 10 17 13 6 2 2 5 6 8 6 5 8 11 13 13 11
38 29 25 24 19 14 1 4 2 6 4 10 14 10 14 19 12 16 19 19 15 18 9 2 1 9 7 9 9 5 6 9 3 4 4 6 8 10 4 7 8 9 17 14 17
31 14 22 24 19 9 5 5 4 9 3 4 10 7 10 13 19 12 9 8 24 19 16 5 2 2 8 10 15 10 6 6 5 6 4 4 5 3 6 12 14 13 18 17 19
15 4 23 28 6 4 7 5 4 6 5 5 10 9 14 18 12 19 17 18 31 23 21 9 4 5 11 5 12 16 16 15 7 8 5 12 17 5 7 4 8 14 14 16 19
8 8 24 28 6 5 2 8 4 3 3 3 6 7 8 13 14 20 17 16 23 17 16 13 5 3 2 4 7 9 15 18 17 1 14 10 13 11 9 3 6 10 15 17 18
8 3 4 14 13 11 6 6 11 8 9 7 9 18 16 14 10 16 14 9 22 27 16 21 5 13 17 13 8 10 14 19 18 11 18 17 25 18 13 6 8 12 19 23 23
6 4 7 5 11 9 11 7 7 6 6 10 4 19 15 11 15 6 14 7 15 18 17 10 8 13 17 13 10 10 16 20 19 24 17 23 18 26 19 12 13 23 26 25 29
6 4 5 3 11 15 13 10 14 4 4 5 12 20 13 6 13 14 16 12 6 6 8 7 5 5 8 15 16 18 16 13 22 23 19 24 25 26 24 21 20 26 32 34 31
8 7 4 7 9 12 16 14 13 13 9 11 12 15 19 1 12 15 11 11 9 9 10 9 6 6 13 11 12 13 21 23 19 18 20 21 26 20 22 23 27 30 28 34 40
Wind_Direction
230 229 230 224 223 227 231 232 231 238 241 241 247 255 263 269 269 272 273 243 242 272 294 322 344 330 330 319 339 324 287 242 152 25 106 135 157 79 136 122 83 76 96 131 135
237 230 232 232 225 222 227 230 230 228 232 241 240 250 260 273 281 272 253 256 255 260 271 322 334 334 315 287 314 288 294 21 14 50 70 90 339 131 202 147 140 120 109 121 122
242 235 231 229 229 226 224 225 230 228 226 225 237 239 250 272 302 267 254 254 247 244 245 259 283 315 286 268 258 250 247 38 80 64 29 61 227 91 279 180 127 154 144 145 151
246 240 236 233 229 228 225 224 224 225 223 223 222 230 230 223 246 310 260 246 236 225 228 236 264 259 262 254 236 279 261 352 94 106 131 229 22 281 263 103 113 123 145 167 182
245 243 239 235 229 225 225 221 222 220 219 218 219 215 207 218 234 262 326 329 226 215 214 210 231 241 250 256 250 202 279 207 104 108 224 293 257 262 283 248 217 195 230 212 233
247 242 238 238 230 223 222 220 219 218 216 215 211 209 210 231 244 244 247 306 185 218 211 201 219 241 284 273 263 232 293 262 211 209 220 241 257 250 234 244 250 222 243 248 236
236 243 236 234 228 222 220 217 216 217 214 211 211 209 222 224 228 219 239 237 201 167 209 220 232 257 215 272 268 298 281 282 254 212 255 229 259 251 242 236 224 224 231 247 245
240 234 234 232 229 220 220 218 213 212 210 213 205 211 234 238 229 238 230 221 226 192 187 197 218 227 249 285 341 209 237 252 208 213 208 151 250 249 239 233 237 243 248 257 236
242 235 235 227 222 217 215 214 215 210 209 212 200 198 233 223 222 222 228 210 219 191 196 191 200 217 206 251 234 207 243 221 244 231 196 178 261 272 260 239 228 232 247 258 250
240 236 229 231 225 212 204 207 204 206 204 214 218 187 234 207 215 212 214 181 189 175 140 178 195 204 215 197 207 216 217 243 257 212 197 245 238 236 270 248 249 248 255 264 271
240 237 228 230 230 215 191 192 184 194 202 193 194 181 328 195 198 202 199 177 184 199 195 195 199 206 197 215 233 268 277 285 245 245 179 227 261 274 275 274 228 229 242 252 261
242 231 225 221 221 216 191 197 197 227 209 213 232 200 178 166 166 194 185 172 187 204 207 194 227 217 222 220 222 242 259 265 290 313 98 294 273 274 267 262 258 257 255 258 262
232 230 223 222 223 218 209 213 209 193 206 208 215 203 192 189 190 189 187 187 186 196 206 216 240 209 233 220 231 231 240 248 259 292 209 275 271 252 249 242 246 249 248 251 259
224 221 224 214 210 219 232 206 208 216 231 184 192 209 195 193 223 210 196 179 207 208 199 228 233 197 219 227 210 232 213 236 248 242 246 198 283 297 277 247 221 226 241 241 246
215 215 211 204 203 199 215 200 207 215 249 164 162 182 182 188 137 199 196 194 211 195 194 205 196 222 219 226 221 237 294 254 225 251 271 258 279 264 231 258 243 209 215 223 217
210 210 206 203 206 220 219 198 202 221 229 167 143 164 156 198 183 137 178 197 213 226 254 238 27 217 227 225 217 164 87 46 354 259 246 229 230 228 235 212 218 205 158 162 182
207 205 201 202 204 182 179 185 200 223 162 177 165 172 180 168 162 170 180 193 175 173 208 218 223 183 229 202 171 222 162 181 222 216 236 203 208 243 302 328 34 187 155 169 189
202 199 197 201 201 198 178 228 220 193 211 140 171 189 190 163 187 179 176 194 216 211 158 185 211 211 169 218 190 203 201 177 199 199 231 206 235 242 208 250 202 174 174 200 201
195 194 198 196 196 190 187 197 213 350 138 173 161 184 181 176 164 170 194 200 197 200 169 184 230 156 176 186 176 189 215 214 326 150 128 241 261 304 167 170 139 150 167 188 201
183 177 189 186 192 182 217 233 269 236 353 228 187 177 199 182 177 180 188 202 205 209 222 167 120 182 179 193 233 187 154 202 208 241 232 240 246 239 203 186 194 193 195 194 197
169 145 186 182 177 168 220 213 251 268 267 288 225 161 193 181 191 191 196 190 200 190 205 154 131 208 147 199 189 200 210 215 185 214 213 248 235 196 238 214 191 204 210 198 208
127 124 168 171 142 172 217 186 208 258 234 301 303 190 191 183 187 189 203 208 194 177 195 189 155 173 207 199 223 217 214 205 206 220 247 257 261 43 99 94 168 187 202 203 221
97 91 168 178 183 199 234 221 191 219 187 203 288 256 248 177 194 206 199 199 187 185 183 181 219 157 215 226 229 218 225 227 232 175 221 224 256 209 248 6 141 174 185 207 217
105 112 114 183 225 196 174 229 230 242 240 213 275 305 237 182 215 191 202 174 192 201 176 164 190 212 225 224 140 207 218 223 226 239 244 241 256 261 266 254 191 195 211 218 216
132 176 176 183 215 216 216 179 183 235 193 170 284 243 219 179 193 181 196 173 187 195 193 154 214 229 242 260 269 227 212 218 229 232 230 250 244 258 258 261 229 215 220 213 215
137 150 183 291 211 199 207 220 219 214 209 200 215 259 210 176 187 189 183 176 169 176 192 171 232 186 256 250 244 256 263 250 232 244 255 253 258 259 273 273 247 241 218 214 210
229 230 208 209 183 184 208 215 224 220 219 233 227 239 200 307 96 74 73 181 152 166 204 180 203 186 244 237 237 253 240 244 254 245 237 246 253 265 262 257 259 258 249 214 222